Regional Weather Roundup
Issued by NWS

Home | Current Version | Previous Version | Text Only | Print | Product List | Glossary On
Versions: 1 2 3 4 5 6 7 8 9 10 11 12 13 14 15 16 17 18 19 20 21 22 23 24 25 26 27 28 29 30 31 32 33 34 35 36 37 38 39 40 41 42 43 44 45 46 47 48 49 50
686
ASUS43 KMKX 070221
RWRWI

WISCONSIN REGIONAL WEATHER ROUNDUP
NATIONAL WEATHER SERVICE MILWAUKEE/SULLIVAN WI
800 PM CST TUE DEC 06 2016

NOTE: "FAIR" INDICATES FEW OR NO CLOUDS BELOW 12,000 FEET WITH NO
SIGNIFICANT WEATHER AND/OR OBSTRUCTIONS TO VISIBILITY.

WIZ001-002-006>008-014>016-023>028-070300-
NORTHWEST WISCONSIN

CITY           SKY/WX    TMP DP  RH WIND       PRES   REMARKS
SUPERIOR ARPT  LGT SNOW  22  17  79 SW21      29.55R WCI   7
ASHLAND        FLURRIES  23  16  74 SW21G28   29.58S WCI   8
HAYWARD        FLURRIES  22  13  68 SW14G25   29.60S WCI   9
SIREN          FLURRIES  22  14  71 SW18G31   29.65R WCI   7
CUMBERLAND     FLURRIES  21  14  73 SW25      29.66R WCI   4
RICE LAKE      CLOUDY    22  14  73 SW14G25   29.69S WCI   9
CHETEK         FLURRIES  21  15  76 MISG      29.70R
LADYSMITH      FLURRIES  22  17  79 SW16G26   29.68R WCI   8
EAU CLAIRE     CLOUDY    22  14  71 W20G35    29.74R WCI   7
MENOMONIE      CLOUDY    23  15  74 SW17G23   29.75R WCI   9
NEW RICHMOND   FLURRIES  21  13  70 W18G26    29.72S WCI   6
OSCEOLA        FLURRIES  22  15  73 W17G33    29.75S WCI   8
$$

WIZ003>005-009-010-017-018-070300-
NORTH CENTRAL WISCONSIN

CITY           SKY/WX    TMP DP  RH WIND       PRES   REMARKS
MANITOWISH WTR FLURRIES  19  16  87 SW15G26   29.58S WCI   5
ARBOR VITAE    FLURRIES  22  17  81 SW10G20   29.59F WCI  11
WOODRUFF       FLURRIES  22  17  81 SW10G20   29.59F WCI  11
RHINELANDER    FLURRIES  21  15  78 SW14G24   29.63F WCI   8
EAGLE RIVER    FLURRIES  20  13  75 SW15G23   29.60F WCI   6
LAND O LAKES   FLURRIES  20  15  79 SW13G18   29.60F WCI   8
PHILLIPS       FLURRIES  19  15  85 SW14G20   29.62S WCI   6
TOMAHAWK       FLURRIES  20  15  81 SW6       29.66S WCI  12
MEDFORD        FLURRIES  20  15  79 SW13G22   29.68R WCI   7
MERRILL        CLOUDY    22  17  81 SW14G21   29.70S WCI   9
$$

WIZ029-030-035-036-043>047-070300-
CENTRAL WISCONSIN

CITY           SKY/WX    TMP DP  RH WIND       PRES   REMARKS
WAUSAU         CLOUDY    22  15  75 SW14      29.71R WCI   9
MOSINEE        CLOUDY    21  18  86 SW18G26   29.72S WCI   6
MARSHFIELD     CLOUDY    22  14  71 W15       29.72R WCI   9
STEVENS POINT  CLOUDY    22  15  74 W13G21    29.75S WCI  10
WAUPACA        CLOUDY    28  19  70 SW16G22   29.77F WCI  15
WAUTOMA        CLOUDY    25  18  74 W12G23    29.80S WCI  14
WISC RAPIDS    CLOUDY    24  16  71 W17G30    29.78R WCI  11
CAMP DOUGLAS   CLOUDY    25  16  68 SW14      29.81R WCI  13
$$

WIZ011>013-019>022-031-037>040-048>050-070300-
NORTHEAST WISCONSIN

CITY           SKY/WX    TMP DP  RH WIND       PRES   REMARKS
ANTIGO         CLOUDY    20  15  81 SW18G25   29.68R WCI   5
SHAWANO        CLOUDY    27  18  69 SW13G22   29.74S WCI  16
OCONTO         CLOUDY    26  16  66 W13G21    29.74R WCI  15
STURGEON BAY   CLOUDY    28  21  75 SW18      29.72R WCI  15
GREEN BAY      CLOUDY    28  19  69 W18G26    29.76S WCI  15
MANITOWOC      CLOUDY    28  20  71 MISG      29.77R
APPLETON       MOCLDY    27  16  63 W17       29.75S WCI  14
CLINTONVILLE   CLOUDY    27  18  69 SW13G22   29.76S WCI  16
OSHKOSH        CLOUDY    26  17  68 W13G24    29.79R WCI  15
$$

WIZ032>034-041-042-053>061-070300-
SOUTHWEST WISCONSIN

CITY           SKY/WX    TMP DP  RH WIND       PRES   REMARKS
LA CROSSE      CLOUDY    27  16  63 W9        29.85R WCI  18
SPARTA         CLOUDY    25  17  72 W7G23     29.83R WCI  18
VIROQUA        CLOUDY    24  17  77 W17G24    29.82F WCI  10
BOSCOBEL       CLOUDY    28  17  63 SW15G23   29.90R WCI  16
PRAIRIE DU CHI MOCLDY    26  15  63 SW10G16   29.92R WCI  17
PLATTEVILLE    CLOUDY    27  20  75 W16       29.90S WCI  15
$$

WIZ056-057-062-063-064-067-068-070300-
SOUTH CENTRAL WISCONSIN

CITY           SKY/WX    TMP DP  RH WIND       PRES   REMARKS
REEDSBURG      CLOUDY    25  17  72 SW13G21   29.84R WCI  14
BARABOO/DELLS  CLOUDY    26  17  70 W16G22    29.82R WCI  13
LONE ROCK      CLOUDY    27  18  69 W12G29    29.88R WCI  17
MINERAL POINT  CLOUDY    28  21  74 W17G25    29.86R WCI  16
MADISON        CLOUDY    26  17  68 W9        29.86R WCI  17
MIDDLETON      NOT AVBL
WATERTOWN      CLOUDY    26  20  77 W10       29.86R WCI  16
MONROE         CLOUDY    28  21  74 W25G31    29.88R WCI  14
JANESVILLE     CLOUDY    28  19  69 W14G28    29.89R WCI  17
$$

WIZ051-052-058>065-066-070>072-070300-
SOUTHEAST WISCONSIN

CITY           SKY/WX    TMP DP  RH WIND       PRES   REMARKS
MILWAUKEE      MOCLDY    29  17  61 W24G33    29.86R WCI  15
WAUKESHA       MOCLDY    25  18  74 W18G28    29.86R WCI  11
MILWAUKEE/TIMM CLOUDY    27  18  69 W15G29    29.85R WCI  15
RACINE         CLOUDY    29  20  69 W12       29.88R WCI  19
BURLINGTON     CLOUDY    27  21  77 W13G18    29.89R WCI  16
KENOSHA        MOCLDY    27  19  72 W25G37    29.88R WCI  12
FOND DU LAC    CLOUDY    26  16  65 W14G22    29.82R WCI  14
SHEBOYGAN      CLOUDY    26  18  71 W24G37    29.80R WCI  11
WEST BEND      CLOUDY    27  19  74 W18G24    29.82R WCI  13
JUNEAU         CLOUDY    25  17  73 SW20      29.85R WCI  11
$$

LSZ147-162-070300-
LAKE SUPERIOR

STATION/POSITION TIME  TEMP    WIND        PRES    WAVE
                       AIR SEA DIR/SP/G            HT/PER
                 (UTC) (F)     (DEG/KT/KT) (MB)    (FT/S)
DEVILS ISLAND    0000   25     220/ 21/ 29 1001.9F
PORT WING        2340   24     190/ 11/ 18 1001.4
SAXON HARBOR     2330   24     200/ 17/ 25 1002.4
$$

LMZ867-665-643>646-070300-
LAKE MICHIGAN

STATION/POSITION TIME  TEMP    WIND        PRES    WAVE
                       AIR SEA DIR/SP/G            HT/PER
                 (UTC) (F)     (DEG/KT/KT) (MB)    (FT/S)
CHAMBERS ISLAND  2340   36     200/  9/ 20 1004.1
NORTHPORT PIER   2340   36      CALM  /  6 1004.1
KEWAUNEE LAKESHO 0018   33     270/ 14/ 18 1005.6
SHEBOYGAN LAKESH 0000   34     250/ 11/ 12 1007.4R
PORT WASHINGTON  0017   32     260/ 15/ 28 1009.1R
MILWAUKEE LAKESH 0040   31     270/ 13/ 17   N/A
KENOSHA   LAKESH 0000   32     270/ 13/ 25 1009.8
$$

TC  - TEMPERATURE IN CELSIUS
VSB - VISIBILITY IN STATUTE MILES
WCI - WIND CHILL INDEX
HX  - HEAT INDEX





USA.gov is the U.S. government's official web portal to all federal, state and local government web resources and services.